Location: Larkspur
(54.4391°N, 113.7691°W)
Time: 13:14:37
(UTC+00:00)

METEOR M2 - Pass Details

Date: 06 December 2023
Orbit: 819 x 826 km, 98.4° (Epoch: 02 March)

Event Time Altitude Azimuth Distance (km) Brightness Sun altitude
Rises 14:42:26 0° 12° (NNE) 3,376 ? -7.8°
Reaches altitude 10° 14:44:54 10° 5° (N) 2,438 ? -7.5°
Maximum altitude 14:49:54 40° 298° (WNW) 1,199 ? -6.8°
Drops below altitude 10° 14:54:52 10° 230° (SW) 2,419 ? -6.2°
Sets 14:57:19 0° 223° (SW) 3,346 ? -5.9°
